Location: Unspecified
(0.0000°N, 0.0000°E)
Time: 23:48:24
(UTC+01:00)

Haruka - Pass Details

Date: 02 July 2018
Orbit: 531 x 21223 km, 31.2° (Epoch: 15 November)

Event Time Altitude Azimuth Distance (km) Brightness Sun altitude
Exits shadow 04:28:40 57° 207° (SSW) 8,628 7.7 -48.0°
Maximum altitude 05:02:42 79° 125° (SE) 13,888 9.0 -40.9°
Drops below altitude 10° 09:16:43 10° 51° (NE) 12,373 11.0 16.7°
Sets 09:24:34 0° 56° (NE) 11,666 10.6 18.5°
